Weather History for Fort Polk, LA

Change the Weather History Date:

Friday, November 9, 2012

  Actual Average (KPOE) Record (KPOE)
Temperature  
Mean Temperature 62 °F -  
Max Temperature 75 °F 67 °F 82 °F (2002)
Min Temperature 50 °F 48 °F 37 °F (1996)
Degree Days  
Heating Degree Days 2    
Growing Degree Days 12 (Base 50)    
Moisture  
Dew Point 50 °F    
Average Humidity 67    
Maximum Humidity 83    
Minimum Humidity 38    
Precipitation  
Precipitation 0.00 in - - ()
Sea Level Pressure  
Sea Level Pressure 30.22 in    
Wind  
Wind Speed 2 mph (SSE)    
Max Wind Speed 7 mph    
Max Gust Speed -    
Visibility 10 miles    
Events      
Averages and records for this station are not official NWS values.
T = Trace of Precipitation, MM = Missing Value Source: NWS Daily Summary

Daily Weather History Graph

Daily Weather History Graph

Search for Another Location

Airport:

Trip Planner

Search our weather history database for the weather conditions in past years. The results will help you decide how hot, cold, wet, or windy it might be!

Date:

Astronomy

Nov. 09, 2012 Rise Set
Actual Time 6:33 AM CST 5:16 PM CST
Civil Twilight 6:08 AM CST 5:42 PM CST
Nautical Twilight 5:39 AM CST 6:11 PM CST
Astronomical Twilight 5:10 AM CST 6:39 PM CST
Moon 1:51 AM CST (11/9) 2:14 PM CST (11/9)
Length of Visible Light 11h 33m
Length of Day
10h 42m
Waning Crescent, 23% of the Moon is Illuminated
Nov 9
Waning Crescent
Nov 13
New
Nov 20
First Quarter
Nov 28
Full
Dec 6
Last Quarter

Hourly Weather History & Observations

Time (CST) Temp. Dew Point Humidity Pressure Visibility Wind Dir Wind Speed Gust Speed Precip Events Conditions
12:33 AM 50.0 °F 44.6 °F 82% 30.15 in 4.0 mi Calm Calm - N/A   Haze
12:54 AM 50.0 °F 45.0 °F 83% 30.23 in 4.0 mi Calm Calm - N/A   Haze
1:54 AM 52.0 °F 46.9 °F 83% 30.22 in 10.0 mi Calm Calm - N/A   Clear
2:54 AM 53.1 °F 46.9 °F 80% 30.22 in 10.0 mi Calm Calm - N/A   Clear
3:54 AM 52.0 °F 46.9 °F 83% 30.22 in 10.0 mi Variable 3.5 mph - N/A   Clear
4:54 AM 53.1 °F 46.9 °F 80% 30.24 in 10.0 mi Variable 3.5 mph - N/A   Clear
5:54 AM 52.0 °F 46.9 °F 83% 30.25 in 10.0 mi Calm Calm - N/A   Clear
6:54 AM 53.1 °F 46.9 °F 80% 30.27 in 10.0 mi Variable 3.5 mph - N/A   Clear
7:54 AM 55.9 °F 48.0 °F 75% 30.28 in 10.0 mi Variable 3.5 mph - N/A   Clear
8:54 AM 59.0 °F 45.0 °F 60% 30.29 in 10.0 mi Variable 4.6 mph - N/A   Clear
9:54 AM 64.9 °F 46.9 °F 52% 30.28 in 10.0 mi Variable 4.6 mph - N/A   Clear
10:54 AM 70.0 °F 48.9 °F 47% 30.27 in 10.0 mi Variable 4.6 mph - N/A   Clear
11:54 AM 73.0 °F 46.9 °F 39% 30.24 in 10.0 mi Variable 5.8 mph - N/A   Clear
12:54 PM 75.0 °F 48.0 °F 38% 30.20 in 10.0 mi Variable 6.9 mph - N/A   Clear
1:54 PM 75.9 °F 50.0 °F 40% 30.18 in 10.0 mi Variable 3.5 mph - N/A   Clear
2:54 PM 75.9 °F 50.0 °F 40% 30.16 in 10.0 mi Variable 5.8 mph - N/A   Clear
3:54 PM 75.0 °F 52.0 °F 44% 30.17 in 10.0 mi Variable 3.5 mph - N/A   Clear
4:54 PM 71.1 °F 55.0 °F 57% 30.17 in 10.0 mi Variable 3.5 mph - N/A   Clear
5:54 PM 68.0 °F 55.0 °F 63% 30.18 in 10.0 mi SSE 3.5 mph - N/A   Clear
6:54 PM 66.0 °F 55.0 °F 68% 30.20 in 10.0 mi Calm Calm - N/A   Clear
7:54 PM 64.0 °F 55.9 °F 75% 30.21 in 10.0 mi Variable 3.5 mph - N/A   Clear
8:54 PM 63.0 °F 55.9 °F 78% 30.22 in 10.0 mi Calm Calm - N/A   Clear
9:54 PM 62.1 °F 55.9 °F 80% 30.22 in 10.0 mi Variable 3.5 mph - N/A   Clear
10:54 PM 61.0 °F 55.0 °F 81% 30.22 in 10.0 mi Variable 3.5 mph - N/A   Clear
11:54 PM 61.0 °F 55.0 °F 81% 30.21 in 10.0 mi Variable 3.5 mph - N/A   Clear